Time,TemperatureF,DewpointF,PressureIn,WindDirection,WindDirectionDegrees,WindSpeedMPH,WindSpeedGustMPH,Humidity,HourlyPrecipIn,Conditions,Clouds,dailyrainin,SoftwareType,DateUTC
2013-03-21 13:26:00,35.2,19.8,29.74,NW,321,10.0,10.0,53,0.00,,,0.00,Wunderground v.1.15,2013-03-21 17:26:00,
2013-03-21 13:27:00,35.2,19.8,29.74,North,6,13.0,13.0,53,0.00,,,0.00,Wunderground v.1.15,2013-03-21 17:27:00,
2013-03-21 13:32:00,35.5,20.5,29.74,NW,315,16.0,18.0,54,0.00,,,0.00,Wunderground v.1.15,2013-03-21 17:32:00,
2013-03-21 13:38:00,35.6,19.2,29.74,NW,321,19.0,19.0,51,0.00,,,0.00,Wunderground v.1.15,2013-03-21 17:38:00,
2013-03-21 13:44:00,35.6,18.8,29.73,NNW,336,14.0,21.0,50,0.00,,,0.00,Wunderground v.1.15,2013-03-21 17:44:00,
2013-03-21 13:50:00,35.7,18.4,29.73,NW,325,13.0,19.0,49,0.00,,,0.00,Wunderground v.1.15,2013-03-21 17:50:00,
2013-03-21 13:55:00,36.0,18.2,29.73,NW,310,16.0,21.0,48,0.00,,,0.00,Wunderground v.1.15,2013-03-21 17:55:00,
2013-03-21 14:01:00,36.1,20.6,29.73,NW,311,13.0,17.0,53,0.00,,,0.00,Wunderground v.1.15,2013-03-21 18:01:00,
2013-03-21 14:07:00,36.0,20.1,29.73,NNW,332,20.0,20.0,52,0.00,,,0.00,Wunderground v.1.15,2013-03-21 18:07:00,
2013-03-21 14:12:00,35.9,18.6,29.73,NW,323,14.0,16.0,49,0.00,,,0.00,Wunderground v.1.15,2013-03-21 18:12:00,
2013-03-21 14:18:00,35.9,17.6,29.73,NNW,339,16.0,21.0,47,0.00,,,0.00,Wunderground v.1.15,2013-03-21 18:18:00,
2013-03-21 14:23:00,36.0,18.2,29.72,NW,326,10.0,16.0,48,0.00,,,0.00,Wunderground v.1.15,2013-03-21 18:23:00,
2013-03-21 14:29:00,36.1,19.2,29.72,NNW,332,14.0,19.0,50,0.00,,,0.00,Wunderground v.1.15,2013-03-21 18:29:00,
2013-03-21 14:35:00,36.0,20.1,29.72,NW,314,14.0,17.0,52,0.00,,,0.00,Wunderground v.1.15,2013-03-21 18:35:00,
2013-03-21 14:40:00,36.2,20.2,29.72,NNW,341,20.0,20.0,52,0.00,,,0.00,Wunderground v.1.15,2013-03-21 18:40:00,
2013-03-21 14:46:00,36.2,20.2,29.72,NW,315,18.0,20.0,52,0.00,,,0.00,Wunderground v.1.15,2013-03-21 18:46:00,
2013-03-21 14:51:00,36.3,19.4,29.71,NNW,332,17.0,20.0,50,0.00,,,0.00,Wunderground v.1.15,2013-03-21 18:51:00,
2013-03-21 14:57:00,36.4,19.5,29.71,NNW,333,14.0,20.0,50,0.00,,,0.00,Wunderground v.1.15,2013-03-21 18:57:00,
2013-03-21 15:02:00,36.3,19.9,29.71,NW,315,16.0,17.0,51,0.00,,,0.00,Wunderground v.1.15,2013-03-21 19:02:00,
2013-03-21 15:08:00,36.4,21.8,29.71,NNW,332,15.0,19.0,55,0.00,,,0.00,Wunderground v.1.15,2013-03-21 19:08:00,
2013-03-21 15:14:00,36.0,19.1,29.71,NW,319,17.0,19.0,50,0.00,,,0.00,Wunderground v.1.15,2013-03-21 19:14:00,
2013-03-21 15:19:00,35.9,20.9,29.71,NNW,330,21.0,24.0,54,0.00,,,0.00,Wunderground v.1.15,2013-03-21 19:19:00,
2013-03-21 15:25:00,36.1,23.9,29.72,NW,320,22.0,23.0,61,0.00,,,0.00,Wunderground v.1.15,2013-03-21 19:25:00,
2013-03-21 15:30:00,36.3,23.7,29.72,NNW,332,13.0,23.0,60,0.00,,,0.00,Wunderground v.1.15,2013-03-21 19:30:00,
2013-03-21 15:36:00,35.9,21.3,29.72,NNW,336,17.0,22.0,55,0.00,,,0.00,Wunderground v.1.15,2013-03-21 19:36:00,
2013-03-21 15:41:00,35.7,20.2,29.72,NW,310,17.0,22.0,53,0.00,,,0.00,Wunderground v.1.15,2013-03-21 19:41:00,
2013-03-21 15:47:00,36.0,21.8,29.72,NNW,332,22.0,22.0,56,0.00,,,0.00,Wunderground v.1.15,2013-03-21 19:47:00,
2013-03-21 15:52:00,35.9,24.1,29.72,NNW,328,21.0,26.0,62,0.00,,,0.00,Wunderground v.1.15,2013-03-21 19:52:00,
2013-03-21 15:58:00,35.5,24.1,29.72,NNW,339,19.0,23.0,63,0.00,,,0.00,Wunderground v.1.15,2013-03-21 19:58:00,
2013-03-21 16:04:00,35.5,21.8,29.72,NW,316,12.0,25.0,57,0.00,,,0.00,Wunderground v.1.15,2013-03-21 20:04:00,
2013-03-21 16:09:00,35.5,20.5,29.72,NW,322,15.0,25.0,54,0.00,,,0.00,Wunderground v.1.15,2013-03-21 20:09:00,
2013-03-21 16:14:00,35.5,21.3,29.72,NNW,337,16.0,22.0,56,0.00,,,0.00,Wunderground v.1.15,2013-03-21 20:14:00,
2013-03-21 16:20:00,35.4,22.5,29.72,NW,325,16.0,22.0,59,0.00,,,0.00,Wunderground v.1.15,2013-03-21 20:20:00,
2013-03-21 16:26:00,35.5,22.2,29.72,NNW,345,19.0,19.0,58,0.00,,,0.00,Wunderground v.1.15,2013-03-21 20:26:00,
2013-03-21 16:31:00,35.6,20.6,29.72,NW,307,16.0,19.0,54,0.00,,,0.00,Wunderground v.1.15,2013-03-21 20:31:00,
2013-03-21 16:37:00,36.1,20.6,29.72,NNW,330,14.0,18.0,53,0.00,,,0.00,Wunderground v.1.15,2013-03-21 20:37:00,
2013-03-21 16:42:00,36.1,17.8,29.72,NW,315,17.0,23.0,47,0.00,,,0.00,Wunderground v.1.15,2013-03-21 20:42:00,
2013-03-21 16:48:00,36.2,18.9,29.72,NW,305,14.0,21.0,49,0.00,,,0.00,Wunderground v.1.15,2013-03-21 20:48:00,
2013-03-21 16:54:00,36.1,17.3,29.72,WNW,295,16.0,23.0,46,0.00,,,0.00,Wunderground v.1.15,2013-03-21 20:54:00,
2013-03-21 17:00:00,36.3,18.0,29.73,WNW,302,15.0,18.0,47,0.00,,,0.00,Wunderground v.1.15,2013-03-21 21:00:00,
2013-03-21 17:05:00,36.5,17.7,29.73,WNW,297,19.0,22.0,46,0.00,,,0.00,Wunderground v.1.15,2013-03-21 21:05:00,
2013-03-21 17:11:00,36.2,18.9,29.73,WNW,288,19.0,19.0,49,0.00,,,0.00,Wunderground v.1.15,2013-03-21 21:11:00,
2013-03-21 17:17:00,36.1,16.8,29.73,WNW,291,21.0,24.0,45,0.00,,,0.00,Wunderground v.1.15,2013-03-21 21:17:00,
2013-03-21 17:22:00,36.0,17.7,29.73,WNW,297,17.0,19.0,47,0.00,,,0.00,Wunderground v.1.15,2013-03-21 21:22:00,
2013-03-21 17:28:00,36.0,15.1,29.73,WNW,300,16.0,24.0,42,0.00,,,0.00,Wunderground v.1.15,2013-03-21 21:28:00,
2013-03-21 17:34:00,36.5,18.6,29.74,WNW,298,17.0,19.0,48,0.00,,,0.00,Wunderground v.1.15,2013-03-21 21:34:00,
2013-03-21 17:39:00,36.1,16.3,29.74,WNW,291,21.0,21.0,44,0.00,,,0.00,Wunderground v.1.15,2013-03-21 21:39:00,
2013-03-21 17:45:00,36.1,15.2,29.74,NW,309,18.0,21.0,42,0.00,,,0.00,Wunderground v.1.15,2013-03-21 21:45:00,
2013-03-21 17:50:00,36.1,17.8,29.75,WNW,300,17.0,24.0,47,0.00,,,0.00,Wunderground v.1.15,2013-03-21 21:50:00,
2013-03-21 17:56:00,36.1,16.8,29.75,WNW,298,18.0,20.0,45,0.00,,,0.00,Wunderground v.1.15,2013-03-21 21:56:00,
2013-03-21 18:02:00,35.9,17.1,29.75,WNW,298,19.0,25.0,46,0.00,,,0.00,Wunderground v.1.15,2013-03-21 22:02:00,
2013-03-21 18:07:00,35.8,16.0,29.75,NW,312,21.0,26.0,44,0.00,,,0.00,Wunderground v.1.15,2013-03-21 22:07:00,
2013-03-21 18:13:00,36.0,17.7,29.76,NW,304,20.0,26.0,47,0.00,,,0.00,Wunderground v.1.15,2013-03-21 22:13:00,
2013-03-21 18:19:00,35.6,15.8,29.76,NW,312,21.0,26.0,44,0.00,,,0.00,Wunderground v.1.15,2013-03-21 22:19:00,
2013-03-21 18:24:00,35.7,19.3,29.76,WNW,295,17.0,23.0,51,0.00,,,0.00,Wunderground v.1.15,2013-03-21 22:24:00,
2013-03-21 18:29:00,35.5,19.1,29.77,WNW,285,22.0,25.0,51,0.00,,,0.00,Wunderground v.1.15,2013-03-21 22:29:00,
2013-03-21 18:35:00,35.5,18.7,29.77,WNW,287,15.0,28.0,50,0.00,,,0.00,Wunderground v.1.15,2013-03-21 22:35:00,
2013-03-21 18:40:00,35.5,18.2,29.77,WNW,302,22.0,28.0,49,0.00,,,0.00,Wunderground v.1.15,2013-03-21 22:40:00,
2013-03-21 18:46:00,35.3,18.0,29.78,WNW,297,23.0,26.0,49,0.00,,,0.00,Wunderground v.1.15,2013-03-21 22:46:00,
2013-03-21 18:51:00,35.2,18.4,29.78,WNW,300,21.0,26.0,50,0.00,,,0.00,Wunderground v.1.15,2013-03-21 22:51:00,
2013-03-21 18:57:00,35.1,16.9,29.78,NW,311,20.0,23.0,47,0.00,,,0.00,Wunderground v.1.15,2013-03-21 22:57:00,
2013-03-21 19:03:00,35.0,16.3,29.78,WNW,289,23.0,26.0,46,0.00,,,0.00,Wunderground v.1.15,2013-03-21 23:03:00,
2013-03-21 19:08:00,35.0,19.6,29.79,NW,304,20.0,26.0,53,0.00,,,0.00,Wunderground v.1.15,2013-03-21 23:08:00,
2013-03-21 19:14:00,35.0,16.3,29.79,WNW,291,18.0,22.0,46,0.00,,,0.00,Wunderground v.1.15,2013-03-21 23:14:00,
2013-03-21 19:19:00,35.0,18.7,29.79,WNW,298,17.0,22.0,51,0.00,,,0.00,Wunderground v.1.15,2013-03-21 23:19:00,
2013-03-21 19:25:00,35.3,21.6,29.80,NW,308,14.0,19.0,57,0.00,,,0.00,Wunderground v.1.15,2013-03-21 23:25:00,
2013-03-21 19:30:00,34.9,20.4,29.80,WNW,297,20.0,24.0,55,0.00,,,0.00,Wunderground v.1.15,2013-03-21 23:30:00,
2013-03-21 19:36:00,34.8,16.1,29.80,WNW,298,21.0,24.0,46,0.00,,,0.00,Wunderground v.1.15,2013-03-21 23:36:00,
2013-03-21 19:42:00,34.7,17.9,29.81,WNW,295,20.0,26.0,50,0.00,,,0.00,Wunderground v.1.15,2013-03-21 23:42:00,
2013-03-21 19:48:00,34.7,18.4,29.81,WNW,302,24.0,24.0,51,0.00,,,0.00,Wunderground v.1.15,2013-03-21 23:48:00,
2013-03-21 19:53:00,34.6,16.9,29.81,WNW,297,25.0,25.0,48,0.00,,,0.00,Wunderground v.1.15,2013-03-21 23:53:00,
2013-03-21 19:59:00,34.6,16.9,29.81,WNW,284,18.0,27.0,48,0.00,,,0.00,Wunderground v.1.15,2013-03-21 23:59:00,
2013-03-21 20:05:00,34.5,17.3,29.81,WNW,294,24.0,26.0,49,0.00,,,0.00,Wunderground v.1.15,2013-03-22 00:05:00,
2013-03-21 20:10:00,34.6,17.4,29.81,WNW,287,23.0,23.0,49,0.00,,,0.00,Wunderground v.1.15,2013-03-22 00:10:00,
2013-03-21 20:16:00,34.4,15.2,29.81,WNW,290,23.0,25.0,45,0.00,,,0.00,Wunderground v.1.15,2013-03-22 00:16:00,
2013-03-21 20:22:00,34.4,15.7,29.82,WNW,287,20.0,22.0,46,0.00,,,0.00,Wunderground v.1.15,2013-03-22 00:22:00,
2013-03-21 20:27:00,34.3,18.5,29.82,WNW,298,18.0,28.0,52,0.00,,,0.00,Wunderground v.1.15,2013-03-22 00:27:00,
2013-03-21 20:33:00,34.0,15.9,29.82,WNW,291,25.0,28.0,47,0.00,,,0.00,Wunderground v.1.15,2013-03-22 00:33:00,
2013-03-21 20:39:00,34.0,16.8,29.82,WNW,298,28.0,28.0,49,0.00,,,0.00,Wunderground v.1.15,2013-03-22 00:39:00,
2013-03-21 20:44:00,33.9,17.7,29.83,WNW,302,20.0,23.0,51,0.00,,,0.00,Wunderground v.1.15,2013-03-22 00:44:00,
2013-03-21 20:50:00,34.0,17.3,29.83,WNW,294,18.0,25.0,50,0.00,,,0.00,Wunderground v.1.15,2013-03-22 00:50:00,
2013-03-21 20:56:00,33.7,16.1,29.83,WNW,301,18.0,27.0,48,0.00,,,0.00,Wunderground v.1.15,2013-03-22 00:56:00,
2013-03-21 21:02:00,33.7,16.5,29.83,NW,304,17.0,21.0,49,0.00,,,0.00,Wunderground v.1.15,2013-03-22 01:02:00,
2013-03-21 21:07:00,33.6,16.9,29.84,NW,304,21.0,27.0,50,0.00,,,0.00,Wunderground v.1.15,2013-03-22 01:07:00,
2013-03-21 21:12:00,33.6,17.8,29.84,WNW,299,22.0,22.0,52,0.00,,,0.00,Wunderground v.1.15,2013-03-22 01:12:00,
2013-03-21 21:18:00,33.6,18.7,29.84,WNW,300,18.0,27.0,54,0.00,,,0.00,Wunderground v.1.15,2013-03-22 01:18:00,
2013-03-21 21:23:00,33.9,19.4,29.84,WNW,300,19.0,20.0,55,0.00,,,0.00,Wunderground v.1.15,2013-03-22 01:23:00,
2013-03-21 21:29:00,33.3,16.6,29.84,WNW,298,19.0,24.0,50,0.00,,,0.00,Wunderground v.1.15,2013-03-22 01:29:00,
2013-03-21 21:35:00,33.3,17.1,29.85,NW,307,22.0,22.0,51,0.00,,,0.00,Wunderground v.1.15,2013-03-22 01:35:00,
2013-03-21 21:40:00,33.2,18.8,29.85,NW,314,21.0,23.0,55,0.00,,,0.00,Wunderground v.1.15,2013-03-22 01:40:00,
2013-03-21 21:46:00,33.1,18.2,29.85,WNW,291,23.0,26.0,54,0.00,,,0.00,Wunderground v.1.15,2013-03-22 01:46:00,
2013-03-21 21:51:00,33.1,16.5,29.86,WNW,293,19.0,26.0,50,0.00,,,0.00,Wunderground v.1.15,2013-03-22 01:51:00,
2013-03-21 21:57:00,32.9,15.8,29.86,West,281,21.0,21.0,49,0.00,,,0.00,Wunderground v.1.15,2013-03-22 01:57:00,
2013-03-21 22:02:00,32.9,18.1,29.86,WNW,288,16.0,22.0,54,0.00,,,0.00,Wunderground v.1.15,2013-03-22 02:02:00,
2013-03-21 22:08:00,32.7,14.7,29.86,WNW,295,20.0,22.0,47,0.00,,,0.00,Wunderground v.1.15,2013-03-22 02:08:00,
2013-03-21 22:14:00,32.7,16.5,29.86,WNW,300,17.0,19.0,51,0.00,,,0.00,Wunderground v.1.15,2013-03-22 02:14:00,
2013-03-21 22:19:00,32.8,17.1,29.86,WNW,294,18.0,23.0,52,0.00,,,0.00,Wunderground v.1.15,2013-03-22 02:19:00,
2013-03-21 22:25:00,32.7,18.3,29.86,WNW,295,17.0,20.0,55,0.00,,,0.00,Wunderground v.1.15,2013-03-22 02:25:00,
2013-03-21 22:31:00,32.6,16.4,29.86,WNW,297,15.0,22.0,51,0.00,,,0.00,Wunderground v.1.15,2013-03-22 02:31:00,
2013-03-21 22:36:00,32.6,16.0,29.86,WNW,302,19.0,20.0,50,0.00,,,0.00,Wunderground v.1.15,2013-03-22 02:36:00,
2013-03-21 22:42:00,32.4,15.8,29.86,WNW,290,16.0,23.0,50,0.00,,,0.00,Wunderground v.1.15,2013-03-22 02:42:00,
2013-03-21 22:47:00,32.5,16.8,29.86,WNW,290,17.0,17.0,52,0.00,,,0.00,Wunderground v.1.15,2013-03-22 02:47:00,
2013-03-21 22:53:00,32.5,15.9,29.86,WNW,297,22.0,22.0,50,0.00,,,0.00,Wunderground v.1.15,2013-03-22 02:53:00,
2013-03-21 22:59:00,32.5,15.4,29.86,WNW,288,19.0,23.0,49,0.00,,,0.00,Wunderground v.1.15,2013-03-22 02:59:00,
2013-03-21 23:05:00,32.5,16.4,29.86,WNW,287,16.0,25.0,51,0.00,,,0.00,Wunderground v.1.15,2013-03-22 03:05:00,
2013-03-21 23:11:00,32.4,15.3,29.86,WNW,294,19.0,19.0,49,0.00,,,0.00,Wunderground v.1.15,2013-03-22 03:11:00,
2013-03-21 23:16:00,32.3,15.3,29.86,WNW,293,16.0,20.0,49,0.00,,,0.00,Wunderground v.1.15,2013-03-22 03:16:00,
2013-03-21 23:22:00,32.2,15.2,29.86,WNW,293,14.0,16.0,49,0.00,,,0.00,Wunderground v.1.15,2013-03-22 03:22:00,
2013-03-21 23:27:00,32.3,16.6,29.87,WNW,288,18.0,20.0,52,0.00,,,0.00,Wunderground v.1.15,2013-03-22 03:27:00,
2013-03-21 23:33:00,32.4,17.2,29.87,WNW,288,21.0,21.0,53,0.00,,,0.00,Wunderground v.1.15,2013-03-22 03:33:00,
2013-03-21 23:39:00,32.3,16.2,29.87,WNW,285,17.0,22.0,51,0.00,,,0.00,Wunderground v.1.15,2013-03-22 03:39:00,
2013-03-21 23:44:00,32.4,17.2,29.87,WNW,293,20.0,20.0,53,0.00,,,0.00,Wunderground v.1.15,2013-03-22 03:44:00,
2013-03-21 23:50:00,32.3,16.6,29.87,WNW,287,18.0,21.0,52,0.00,,,0.00,Wunderground v.1.15,2013-03-22 03:50:00,
2013-03-21 23:55:00,32.6,16.9,29.87,WNW,295,18.0,21.0,52,0.00,,,0.00,Wunderground v.1.15,2013-03-22 03:55:00,